Satellite: NOAA-18
Catalog number: 28654
Epoch time:      06201.32345706
Element set:     561
Inclination:      098.7887 deg
RA of node:       143.8929 deg
Eccentricity:    0.0015082
Arg of perigee:   125.2191 deg
Mean anomaly:     235.0406 deg
Mean motion:   14.10976922 rev/day
Decay rate:       3.45e-06 rev/day^2
Epoch rev:            6005
Checksum:              299

/EX
SB KEPS @ AMSAT  $ORB06201.M
Orbital Elements  06201.MISC

HR AMSAT ORBITAL ELEMENTS FOR MANNED AND MISCELLANEOUS SATELLITES
FROM WA5QGD FORT WORTH,TX July 20, 2006
Send SUBSCRIBE KEPS/UNSUBSCRIBE KEPS to majordomo@amsat.org only
BID: ORB06201.M
TO ALL RADIO AMATEURS BT

Satellite: HUBBLE
Catalog number: 20580
Epoch time:      06200.43091422
Element set:    0658
Inclination:      028.4675 deg
RA of node:       199.6877 deg
Eccentricity:    0.0003929
Arg of perigee:   166.7195 deg
Mean anomaly:     193.3494 deg
Mean motion:   15.00065039 rev/day
Decay rate:       2.35e-06 rev/day^2
Epoch rev:           68994
Checksum:              321

Satellite: UARS
Catalog number: 21701
Epoch time:      06200.81857381
Element set:    0840
Inclination:      056.9794 deg
RA of node:       311.7601 deg
Eccentricity:    0.0096909
Arg of perigee:   271.9693 deg
Mean anomaly:     087.0266 deg
Mean motion:   15.43985847 rev/day
Decay rate:      2.555e-05 rev/day^2
Epoch rev:           81434
Checksum:              329

Satellite: PO-34
Catalog number: 25520
Epoch time:      06200.98471015
Element set:    0520
Inclination:      028.4586 deg
RA of node:       171.7317 deg
Eccentricity:    0.0005290
Arg of perigee:   228.8472 deg
Mean anomaly:     131.1663 deg
Mean motion:   15.16751085 rev/day
Decay rate:       5.65e-06 rev/day^2
Epoch rev:           42703
Checksum:              282

Satellite: ISS
Catalog number: 25544
Epoch time:      06201.46952735
Element set:     336
Inclination:      051.6343 deg
RA of node:       016.0148 deg
Eccentricity:    0.0010773
Arg of perigee:   093.7262 deg
Mean anomaly:     357.5267 deg
Mean motion:   15.76400051 rev/day
Decay rate:      9.193e-05 rev/day^2
Epoch rev:           43841
Checksum:              285

Satellite: OO-38
Catalog number: 26063
Epoch time:      06200.69762723
Element set:    0671
Inclination:      100.1886 deg
RA of node:       137.5908 deg
Eccentricity:    0.0037090
Arg of perigee:   016.5052 deg
Mean anomaly:     343.7325 deg
Mean motion:   14.35771410 rev/day
Decay rate:       -1.3e-07 rev/day^2
Epoch rev:           33934
Checksum:              285

Satellite: NO-45
Catalog number: 26932
Epoch time:      06200.68826392
Element set:    0379
Inclination:      067.0510 deg
RA of node:       283.6728 deg
Eccentricity:    0.0008479
Arg of perigee:   248.7762 deg
Mean anomaly:     111.2433 deg
Mean motion:   14.29529763 rev/day
Decay rate:       -6.5e-07 rev/day^2
Epoch rev:           25061
Checksum:              321

Satellite: UWE-1
Catalog number: 28892
Epoch time:      06200.69583779
Element set:    0506
Inclination:      098.1602 deg
RA of node:       098.3828 deg
Eccentricity:    0.0018634
Arg of perigee:   071.2817 deg
Mean anomaly:     289.0370 deg
Mean motion:   14.59374191 rev/day
Decay rate:        9.2e-07 rev/day^2
Epoch rev:           03871
Checksum:              329

Satellite: CO-58
Catalog number: 28895
Epoch time:      06200.75438725
Element set:     489
Inclination:      098.1633 deg
RA of node:       098.5318 deg
Eccentricity:    0.0019011
Arg of perigee:   071.6740 deg
Mean anomaly:     288.6560 deg
Mean motion:   14.59426894 rev/day
Decay rate:       2.75e-06 rev/day^2
Epoch rev:            3860
Checksum:              344

Satellite: NCUBE2
Catalog number: 28897
Epoch time:      06200.59110458
Element set:    0097
Inclination:      098.1615 deg
RA of node:       098.3571 deg
Eccentricity:    0.0018370
Arg of perigee:   073.4126 deg
Mean anomaly:     286.9078 deg
Mean motion:   14.59581824 rev/day
Decay rate:       1.19e-06 rev/day^2
Epoch rev:           03085
Checksum:              321

/EX



----
Via the keps mailing list at AMSAT.ORG courtesy of AMSAT-NA.
To unsubscribe, send "unsubscribe keps" to Majordomo@amsat.org

--- ViaMAIL!/WC v1.60d
 * Origin: Chowdanet (401-724-4410) telnet://chowdanet.com  (1:323/120)